Regional Weather Roundup
Issued by NWS Sioux Falls, SD

Home | Current Version | Previous Version | Graphics & Text | Print | Product List | Glossary Off
Versions: 1 2 3 4 5 6 7 8 9 10 11 12 13 14 15 16 17 18 19 20 21 22 23 24 25 26 27 28 29 30 31 32 33 34 35 36 37 38 39 40 41 42 43 44 45 46 47 48 49 50

000
ASUS43 KFSD 231210
RWRFSD

WEATHER ROUNDUP FOR SE SOUTH DAKOTA/SW MINNESOTA/NW IOWA
NATIONAL WEATHER SERVICE SIOUX FALLS SD
600 AM CST SUN NOV 23 2014

NOTE: "FAIR" INDICATES FEW OR NO CLOUDS BELOW 12,000 FEET WITH NO
SIGNIFICANT WEATHER AND OR OBSTRUCTIONS TO VISIBILITY.


SDZ038>040-050-052>070-231300-
SOUTHEAST SOUTH DAKOTA

CITY           SKY/WX    TMP DP  RH WIND       PRES   REMARKS
CHAMBERLAIN    CLOUDY    40  36  86 NW7       29.53R
6HR MIN TEMP:  35; 6HR MAX TEMP:  41;

HURON          MOCLDY    38  34  85 NW9       29.48R
6HR MIN TEMP:  32; 6HR MAX TEMP:  39;

MADISON        CLOUDY    36  36 100 W6        29.47R
MITCHELL       CLOUDY    39  35  86 NW13      29.51R
6HR MIN TEMP:  32; 6HR MAX TEMP:  42;

SIOUX FALLS    CLOUDY    41  40  96 W8        29.46R
6HR MIN TEMP:  38; 6HR MAX TEMP:  43;

WINNER         CLOUDY    41  35  79 NW12      29.55R
YANKTON        CLOUDY    39  36  87 W10       29.46R
$$

MNZ071-072-080-081-089-090-097-098-231300-
SOUTHWEST MINNESOTA

CITY           SKY/WX    TMP DP  RH WIND       PRES   REMARKS
FAIRMONT       CLOUDY    52  46  82 S14       29.45R
JACKSON        CLOUDY    48  46  93 SW5       29.44S FOG
LUVERNE        FOG       41  39  93 CALM      29.44S VSB 1/4
MARSHALL       CLOUDY    41  37  87 SW6       29.44R
6HR MIN TEMP:  39; 6HR MAX TEMP:  46;

MONTEVIDEO     CLOUDY    37  36  93 W6        29.44R
PIPESTONE      FOG       37  37 100 NW5       29.44R VSB<1/4
REDWOOD FALLS  CLOUDY    42  40  92 W6        29.43S FOG
TRACY          CLOUDY    45  44  97 W8        29.44R FOG
WINDOM         CLOUDY    48  48 100 SW9       29.43F FOG
WORTHINGTON    CLOUDY    48  46  93 SW9       29.44R
$$

IAZ001>003-012>014-020>022-031-032-NEZ013-014-SDZ071-231300-
NORTHWEST IOWA

CITY           SKY/WX    TMP DP  RH WIND       PRES   REMARKS
CHEROKEE       CLOUDY    51  51 100 S9        29.44S FOG
DENISON        CLOUDY    52  52 100 S15G23    29.44F
ESTHERVILLE    CLOUDY    49  48  97 S10       29.44R FOG
LE MARS          N/A     50  50 100 S9        29.44R FOG
ORANGE CITY    FOG       52  48  87 SW8       29.43R VSB 3/4
SHELDON        CLOUDY    50  50 100 S10       29.42R FOG
SIOUX CITY     CLOUDY    50  48  93 CALM      29.45R FOG
6HR MIN TEMP:  50; 6HR MAX TEMP:  55;

SPENCER        CLOUDY    50  48  93 SW7       29.44R FOG
6HR MIN TEMP:  46; 6HR MAX TEMP:  51;

STORM LAKE     CLOUDY    50  50 100 SW15      29.45S FOG
$$

ABBREVIATIONS USED IN REMARKS
   TC - TEMPERATURE IN CELSIUS
  WCI - WIND CHILL INDEX
   HX - HEAT INDEX
  VSB - VISIBILITY




USA.gov is the U.S. government's official web portal to all federal, state and local government web resources and services.